Location: Esterri de Aneo
(42.6284°N, 1.1223°E)
Time: 16:48:42
(UTC+00:00)

Cosmos 1867 - Pass Details

Date: 11 December 2025
Orbit: 777 x 797 km, 65.0° (Epoch: 16 January)

Event Time Altitude Azimuth Distance (km) Brightness Sun altitude
Rises 17:08:32 0° 329° (NNW) 3,308 6.9 -8.4°
Reaches altitude 10° 17:11:01 10° 333° (NNW) 2,374 6.1 -8.8°
Maximum altitude 17:16:24 57° 53° (NE) 932 3.6 -9.7°
Drops below altitude 10° 17:21:45 10° 132° (SE) 2,356 5.8 -10.7°
Sets 17:24:12 0° 136° (SE) 3,280 6.5 -11.1°
